Regional Weather Roundup
Issued by NWS Columbia, SC

Current Version | Previous Version | Text Only | Print | Product List | Glossary On
Versions: 1 2 3 4 5 6 7 8 9 10 11 12 13 14 15 16 17 18 19 20 21 22 23 24 25 26 27 28 29 30 31 32 33 34 35 36 37 38 39 40 41 42 43 44 45 46 47 48 49 50
000
ASUS42 KCAE 012010
RWRCAE
REGIONAL WEATHER ROUNDUP
NATIONAL WEATHER SERVICE COLUMBIA SC
400 PM EDT TUE SEP 01 2015

NOTE: "FAIR" INDICATES FEW OR NO CLOUDS BELOW 12,000 FEET WITH NO
SIGNIFICANT WEATHER AND/OR OBSTRUCTIONS TO VISIBILITY.

NOT ALL STATIONS ARE QUALITY CONTROLLED BY THE NATIONAL
WEATHER SERVICE. USE DATA WITH CAUTION...ESPECIALLY
DEWPOINT OBSERVATIONS.

SCZ001>056-GAZ040-063>065-077-012100-
...UPSTATE SOUTH CAROLINA...

CITY           SKY/WX    TMP DP  RH WIND       PRES   REMARKS
ANDERSON       MOSUNNY   87  66  49 VRB3      30.10F
LIBERTY        PTCLDY    86  66  51 CALM      30.10S
SPARTANBURG    MOSUNNY   91  61  35 CALM      30.07F HAZE
CLEMSON        MOSUNNY   88  65  46 VRB5      30.11F
GREENVILLE     PTSUNNY   88  64  44 VRB6      30.10F
GREENWOOD      MOSUNNY   89  65  44 SE6       30.10F
GREER          PTSUNNY   92  64  39 SE7       30.08F
ROCK HILL      CLOUDY    93  64  38 NE7       30.07F
LAURENS        MOCLDY    88  73  62 S5        30.08F HX  96


...CENTRAL SOUTH CAROLINA...

CITY           SKY/WX    TMP DP  RH WIND       PRES   REMARKS
COLUMBIA APT   PTSUNNY   92  63  38 VRB3      30.05F
COLUMBIA OWENS SUNNY     91  66  43 VRB5      30.07F
DARLINGTON     SUNNY     91  68  46 NW3       30.07F HX  95
FLORENCE       MOSUNNY   90  67  46 NW6       30.05F
MCENTIRE ANGB  PTSUNNY   88  67  50 NE5       30.07F
ORANGEBURG     MOSUNNY   90  67  46 W6        30.07F
SUMTER SHAW    MOSUNNY   91  66  43 VRB6      30.04F
NEWBERRY       PTCLDY    88  64  45 W5        30.11F
AIKEN          FAIR      88  61  40 CALM      30.11F
BARNWELL       FAIR      90  68  48 CALM      30.08S
MANNING        FAIR      86  64  48 SW5       30.06F
CAMDEN         FAIR      91  66  43 CALM      30.06F
LANCASTER      PTCLDY    90  64  43 SW6       30.07F
WINNSBORO      CLEAR     88  64  45 E3        30.08S


...EASTERN AND COASTAL SOUTH CAROLINA...

CITY           SKY/WX    TMP DP  RH WIND       PRES   REMARKS
MYRTLE BEACH   MOSUNNY   86  72  62 S12       30.08F
N MYRTLE BCH   SUNNY     85  74  69 S9        30.06F
CONWAY         FAIR      88  70  55 S6        30.06F HAZE
MARION         MOCLDY    88  68  51 CALM      30.05F
HARTSVILLE     FAIR      88  64  45 SE5       30.06F
FLORENCE       MOSUNNY   90  67  46 NW6       30.05F
DARLINGTON     SUNNY     91  68  46 NW3       30.07F HX  95
CHARLESTON APT PTSUNNY   89  71  55 SW8       30.06F HX  95
MOUNT PLEASANT FAIR      88  73  62 SE8       30.07F HX  96
WALTERBORO     CLOUDY    90  68  48 CALM      30.08S
BEAUFORT       PTSUNNY   87  71  58 CALM      30.08S
HILTON HEAD    MOSUNNY   82  73  74 E5        30.11


...EASTERN GEORGIA...

CITY           SKY/WX    TMP DP  RH WIND       PRES   REMARKS
AUGUSTA BUSH F PTSUNNY   89  67  47 VRB3      30.06F
AUGUSTA DANIEL PTSUNNY   88  67  49 VRB3      30.09F
THOMSON        MOSUNNY   90  69  49 CALM      30.13F
WASHINGTON     FAIR      90  72  55 CALM      30.09F HX  96
SYLVANIA       PTCLDY    87  74  64 CALM      30.09S HX  95
STATESBORO     MOSUNNY   89  73  58 CALM      30.08S HX  96
SAVANNAH       CLOUDY    86  73  65 SE12      30.07F


...SOUTHERN NORTH CAROLINA...

CITY           SKY/WX    TMP DP  RH WIND       PRES   REMARKS
CHARLOTTE      MOSUNNY   91  60  35 VRB5      30.08F
MONROE         SUNNY     90  65  43 CALM      30.07F
WADESBORO      MOCLDY    91  62  37 E3        30.05F
ROCKINGHAM     PTCLDY    88  66  48 CALM      30.06F
RUTHERFORDTON  MOSUNNY   90  62  39 S7        30.10F
ASHEVILLE      CLOUDY    86  61  42 SE7       30.16F

$$


USA.gov is the U.S. government's official web portal to all federal, state and local government web resources and services.